Wadena, MN

12:10 AM CDT on July 22, 2017 (GMT -0500)
Wadena Municipal

Weather History for KADC - October, 2011

Change the Weather History Date:

Tuesday, October 18, 2011

  Actual Average Record
Temperature  
Mean Temperature 35 °F -  
Max Temperature 42 °F 52 °F 79 °F (1945)
Min Temperature 26 °F 30 °F 10 °F (1972)
Degree Days  
Heating Degree Days 30    
Moisture  
Dew Point 26 °F    
Average Humidity 66    
Maximum Humidity 81    
Minimum Humidity 42    
Precipitation  
Precipitation 0.00 in - - ()
Sea Level Pressure  
Sea Level Pressure 30.02 in    
Wind  
Wind Speed 10 mph (NW)    
Max Wind Speed 20 mph    
Max Gust Speed 25 mph    
Visibility 10 miles    
Events      
Averages and records for this station are not official NWS values.
T = Trace of Precipitation, MM = Missing Value Source: NWS Daily Summary

Daily Weather History Graph

Daily Weather History Graph

Search for Another Location

Airport or City:

Trip Planner

Search our weather history database for the weather conditions in past years. The results will help you decide how hot, cold, wet, or windy it might be!

Date:

Astronomy

Oct. 18, 2011 Rise Set
Actual Time 7:42 AM CDT 6:29 PM CDT
Civil Twilight 7:11 AM CDT 6:59 PM CDT
Nautical Twilight 6:36 AM CDT 7:34 PM CDT
Astronomical Twilight 6:01 AM CDT 8:09 PM CDT
Moon 10:59 PM CDT (10/18) 1:46 PM CDT (10/18)
Length of Visible Light 11h 48m
Length of Day
10h 47m
Waning Gibbous, 64% of the Moon is Illuminated
Oct 18
Waning Gibbous
Oct 19
Last Quarter
Oct 26
New
Nov 2
First Quarter
Nov 10
Full

Hourly Weather History & Observations

Time (CDT) Temp. Windchill Dew Point Humidity Pressure Visibility Wind Dir Wind Speed Gust Speed Precip Events Conditions
12:15 AM 33.8 °F 28.6 °F 28.4 °F 81% 29.92 in 10.0 mi WNW 5.8 mph - N/A   Overcast
12:34 AM 35.6 °F 29.9 °F 28.4 °F 75% 29.92 in 10.0 mi WNW 6.9 mph - N/A   Overcast
12:53 AM 35.6 °F 29.2 °F 30.2 °F 81% 29.92 in 10.0 mi NW 8.1 mph - N/A   Overcast
1:15 AM 35.6 °F 28.0 °F 30.2 °F 81% 29.92 in 10.0 mi WNW 10.4 mph - N/A   Overcast
1:34 AM 35.6 °F 29.9 °F 30.2 °F 81% 29.92 in 10.0 mi West 6.9 mph - N/A   Overcast
1:53 AM 35.6 °F 28.6 °F 30.2 °F 81% 29.92 in 10.0 mi NW 9.2 mph - N/A   Overcast
2:14 AM 35.6 °F 27.5 °F 30.2 °F 81% 29.93 in 10.0 mi NW 11.5 mph - N/A   Overcast
2:53 AM 35.6 °F 28.6 °F 30.2 °F 81% 29.94 in 10.0 mi NW 9.2 mph - N/A   Overcast
3:34 AM 35.6 °F 28.6 °F 30.2 °F 81% 29.94 in 10.0 mi NW 9.2 mph - N/A   Overcast
3:53 AM 35.6 °F 28.0 °F 30.2 °F 81% 29.95 in 10.0 mi NW 10.4 mph - N/A   Overcast
4:14 AM 35.6 °F 28.0 °F 30.2 °F 81% 29.95 in 10.0 mi NW 10.4 mph - N/A   Overcast
4:34 AM 35.6 °F 26.6 °F 30.2 °F 81% 29.95 in 10.0 mi NW 13.8 mph - N/A   Overcast
4:53 AM 35.6 °F 27.5 °F 30.2 °F 81% 29.96 in 10.0 mi NW 11.5 mph - N/A   Drizzle
5:14 AM 35.6 °F 28.0 °F 30.2 °F 81% 29.96 in 10.0 mi NW 10.4 mph - N/A   Overcast
5:34 AM 35.6 °F 28.0 °F 30.2 °F 81% 29.97 in 10.0 mi NW 10.4 mph - N/A   Overcast
5:53 AM 35.6 °F 27.5 °F 28.4 °F 75% 29.97 in 10.0 mi NNW 11.5 mph 18.4 mph N/A   Overcast
6:14 AM 35.6 °F 27.5 °F 28.4 °F 75% 29.98 in 10.0 mi NW 11.5 mph - N/A   Overcast
6:34 AM 35.6 °F 27.5 °F 28.4 °F 75% 29.98 in 10.0 mi NNW 11.5 mph 17.3 mph N/A   Overcast
7:14 AM 35.6 °F 28.6 °F 28.4 °F 75% 29.99 in 10.0 mi NNW 9.2 mph 21.9 mph N/A   Overcast
7:35 AM 35.6 °F 28.0 °F 28.4 °F 75% 30.00 in 10.0 mi NNW 10.4 mph - N/A   Overcast
7:52 AM 35.6 °F 26.2 °F 28.4 °F 75% 30.00 in 10.0 mi NNW 15.0 mph - N/A   Overcast
8:15 AM 35.6 °F 28.6 °F 28.4 °F 75% 30.01 in 10.0 mi NNW 9.2 mph - N/A   Overcast
8:35 AM 35.6 °F 27.5 °F 26.6 °F 70% 30.02 in 10.0 mi NNW 11.5 mph 16.1 mph N/A   Overcast
8:52 AM 35.6 °F 25.5 °F 26.6 °F 70% 30.03 in 10.0 mi NNW 17.3 mph 24.2 mph N/A   Overcast
9:15 AM 35.6 °F 25.9 °F 26.6 °F 70% 30.04 in 10.0 mi NNW 16.1 mph 21.9 mph N/A   Overcast
9:34 AM 35.6 °F 28.6 °F 26.6 °F 70% 30.04 in 10.0 mi NNW 9.2 mph - N/A   Overcast
10:15 AM 35.6 °F 26.2 °F 26.6 °F 70% 30.05 in 10.0 mi NNW 15.0 mph - N/A   Overcast
10:34 AM 35.6 °F 28.0 °F 26.6 °F 70% 30.05 in 10.0 mi NNW 10.4 mph - N/A   Overcast
10:53 AM 35.6 °F 26.2 °F 26.6 °F 70% 30.05 in 10.0 mi NNW 15.0 mph - N/A   Overcast
11:15 AM 37.4 °F 27.8 °F 26.6 °F 65% 30.05 in 10.0 mi NNW 17.3 mph - N/A   Overcast
11:52 AM 37.4 °F 28.2 °F 24.8 °F 60% 30.06 in 10.0 mi NNW 16.1 mph - N/A   Overcast
12:15 PM 39.2 °F 29.8 °F 24.8 °F 56% 30.05 in 10.0 mi NNW 18.4 mph 23.0 mph N/A   Mostly Cloudy
12:34 PM 37.4 °F 28.2 °F 24.8 °F 60% 30.06 in 10.0 mi NW 16.1 mph 25.3 mph N/A   Mostly Cloudy
12:53 PM 39.2 °F 30.2 °F 26.6 °F 61% 30.06 in 10.0 mi NW 17.3 mph 21.9 mph N/A   Overcast
1:15 PM 39.2 °F 30.8 °F 24.8 °F 56% 30.05 in 10.0 mi NW 15.0 mph 18.4 mph N/A   Mostly Cloudy
1:35 PM 41.0 °F 32.5 °F 24.8 °F 53% 30.04 in 10.0 mi NNW 17.3 mph 24.2 mph N/A   Scattered Clouds
1:52 PM 41.0 °F 32.5 °F 24.8 °F 53% 30.04 in 10.0 mi NNW 17.3 mph 25.3 mph N/A   Scattered Clouds
2:15 PM 42.8 °F 35.4 °F 24.8 °F 49% 30.04 in 10.0 mi NNW 15.0 mph 21.9 mph N/A   Scattered Clouds
2:34 PM 42.8 °F 34.8 °F 24.8 °F 49% 30.04 in 10.0 mi NW 17.3 mph 20.7 mph N/A   Scattered Clouds
2:53 PM 42.8 °F 35.4 °F 24.8 °F 49% 30.04 in 10.0 mi NNW 15.0 mph 20.7 mph N/A   Scattered Clouds
3:14 PM 42.8 °F 34.3 °F 24.8 °F 49% 30.04 in 10.0 mi NW 19.6 mph 25.3 mph N/A   Scattered Clouds
3:35 PM 42.8 °F 35.8 °F 23.0 °F 46% 30.03 in 10.0 mi NNW 13.8 mph 23.0 mph N/A   Clear
3:53 PM 42.8 °F 35.8 °F 23.0 °F 46% 30.03 in 10.0 mi NNW 13.8 mph - N/A   Clear
4:14 PM 42.8 °F 34.8 °F 23.0 °F 46% 30.04 in 10.0 mi NW 17.3 mph 20.7 mph N/A   Clear
4:35 PM 42.8 °F 35.1 °F 23.0 °F 46% 30.03 in 10.0 mi NNW 16.1 mph 21.9 mph N/A   Clear
4:52 PM 42.8 °F 36.2 °F 21.2 °F 42% 30.04 in 10.0 mi NNW 12.7 mph 19.6 mph N/A   Clear
5:52 PM 39.2 °F 32.0 °F 21.2 °F 49% 30.05 in 10.0 mi NNW 11.5 mph 17.3 mph N/A   Clear
6:14 PM 37.4 °F 31.4 °F 21.2 °F 52% 30.06 in 10.0 mi NW 8.1 mph - N/A   Clear
6:35 PM 37.4 °F 30.8 °F 21.2 °F 52% 30.06 in 10.0 mi NNW 9.2 mph - N/A   Clear
6:52 PM 35.6 °F 29.2 °F 21.2 °F 56% 30.07 in 10.0 mi NW 8.1 mph - N/A   Clear
7:15 PM 33.8 °F 27.7 °F 21.2 °F 60% 30.08 in 10.0 mi NW 6.9 mph - N/A   Clear
7:35 PM 33.8 °F 28.6 °F 21.2 °F 60% 30.08 in 10.0 mi NW 5.8 mph - N/A   Clear
7:52 PM 32.0 °F 26.4 °F 21.2 °F 64% 30.09 in 10.0 mi NNW 5.8 mph - N/A   Clear
8:14 PM 30.2 °F 26.7 °F 21.2 °F 69% 30.10 in 10.0 mi NNW 3.5 mph - N/A   Clear
8:35 PM 30.2 °F 25.4 °F 21.2 °F 69% 30.10 in 10.0 mi NW 4.6 mph - N/A   Clear
8:52 PM 28.4 °F 22.2 °F 19.4 °F 69% 30.10 in 10.0 mi NW 5.8 mph - N/A   Clear
9:15 PM 28.4 °F - 19.4 °F 69% 30.10 in 10.0 mi Calm Calm - N/A   Clear
9:34 PM 28.4 °F - 19.4 °F 69% 30.10 in 10.0 mi Calm Calm - N/A   Clear
9:53 PM 26.6 °F 21.2 °F 19.4 °F 74% 30.10 in 10.0 mi NW 4.6 mph - N/A   Clear
10:14 PM 26.6 °F 20.0 °F 19.4 °F 74% 30.11 in 10.0 mi NW 5.8 mph - N/A   Clear
10:35 PM 26.6 °F 20.0 °F 19.4 °F 74% 30.11 in 10.0 mi NW 5.8 mph - N/A   Clear
11:15 PM 28.4 °F - 21.2 °F 74% 30.11 in 10.0 mi Calm Calm - N/A   Overcast
11:34 PM 28.4 °F 23.3 °F 21.2 °F 74% 30.11 in 10.0 mi NNW 4.6 mph - N/A   Overcast
11:53 PM 28.4 °F 24.6 °F 21.2 °F 74% 30.11 in 10.0 mi NNW 3.5 mph - N/A   Overcast